User: anonymous   Login
Location: Byszew
(52.1813°N, 19.2693°E)
Time: 17:38:19
(UTC+00:00)
Language:

Cosmos 1610 Rocket - Orbit

View from above orbital plane
View from above orbital plane
View from above satellite
View from above satellite

Ground track
Ground track

The orbit data is extracted from the following two-line orbital elements,

1 15399U 84118B   21127.81783733  .00000032  00000-0  16699-4 0  9992
2 15399  82.9494  31.5363 0034476 142.6893 279.8461 13.76129208831113
Epoch (UTC): 07 May 2021 19:37:41
Eccentricity: 0.0034476
inclination: 82.9494°
perigee height: 952 km
apogee height: 1003 km
right ascension of ascending node: 31.5363°
argument of perigee: 142.6893°
revolutions per day: 13.76129208
mean anomaly at epoch: 279.8461°
orbit number at epoch: 83111

The dashed part of the orbit path shows where the satellite is in the earth's shadow,  

DLR